Location: Chamberlain Observatory
(39.0028°N, 90.1630°W)
Time: 15:16:48
(UTC-05:00)

Daily predictions for brighter satellites

Satellite Brightness Start Highest point End
(mag) Time Altitude Azimuth Time Altitude Azimuth Time Altitude Azimuth
Cosmos 1626 Rocket 3.8 20:44:21 10° SSE 20:48:37 50° E 20:52:54 10° NNE
GEOS 3 Rocket 4.0 20:43:40 10° SE 20:48:49 56° NE 20:53:55 10° NNW
CZ-4 DEB 2.9 20:47:08 10° S 20:50:21 77° WSW 20:53:35 10° NNW
Cosmos 1603 3.7 20:45:30 10° SSW 20:51:05 78° ESE 20:56:42 10° NNE
Meteor 1-15 Rocket 4.3 20:45:42 10° N 20:51:20 80° E 20:57:01 10° SSE
FENGYUN 3A 3.8 20:46:28 10° SSE 20:51:51 85° WSW 20:57:17 10° NNW
Atlas Centaur 2 3.3 20:48:22 10° WSW 20:54:40 42° S 21:02:10 10° ESE
Meteor 2-9 Rocket 4.4 20:50:16 10° N 20:56:02 88° W 21:01:54 10° S
Envisat 3.8 20:54:53 10° SE 20:59:27 35° ENE 21:04:02 10° N
Cosmos 1943 Rocket 4.2 21:01:30 10° NNE 21:04:18 14° NE 21:07:07 10° E
Cosmos 2034 Rocket 4.1 20:58:36 10° N 21:04:59 80° E 21:11:17 10° S
Cosmos 1461 3.7 21:04:04 10° NW 21:08:09 46° WSW 21:12:01 10° S
Cosmos 1943 3.5 21:06:05 10° S 21:11:28 46° ESE 21:16:52 10° NE
SJ-11-01 4.3 21:08:04 10° SSE 21:12:43 82° ENE 21:17:25 10° N
Cosmos 1939 Rocket 3.0 21:13:48 10° SSE 21:17:54 62° ENE 21:22:00 10° N
GRACE-1 3.9 21:15:13 10° N 21:18:04 62° E 21:20:47 11° S
GRACE-2 3.9 21:15:39 10° N 21:18:31 62° E 21:21:13 11° S
H-2A R/B 4.4 21:17:09 10° SSW 21:20:45 34° W 21:24:25 10° NNW
Cosmos 1346 Rocket 3.6 21:27:06 17° SE 21:29:27 30° E 21:32:56 10° NNE
Cosmos 1992 Rocket 4.0 21:28:31 10° NNW 21:33:45 73° ENE 21:37:49 17° SSE
SeaSat 1 2.9 21:35:39 18° SE 21:39:04 48° ENE 21:43:49 10° NNW
ARGOS 4.1 21:36:49 17° ESE 21:40:10 33° ENE 21:44:59 10° N
COSMOS 2455 3.6 21:35:50 10° SW 21:41:43 57° WNW 21:47:39 10° NNE
Cosmos 1758 Rocket 4.2 21:40:29 21° SE 21:42:49 36° E 21:46:48 10° NNE
USA 81 4.2 21:38:29 10° N 21:43:43 59° E 21:47:29 19° SSE
ISS -0.6 21:46:16 10° W 21:48:54 22° NNW 21:51:32 10° NNE
MetOp-B 4.2 21:45:19 19° SSE 21:49:12 69° ENE 21:54:32 10° N
CZ-4B R/B 3.5 21:50:11 10° NNE 21:55:18 67° ESE 21:59:55 13° S
Cosmos 2369 Rocket 2.1 21:49:58 10° NNW 21:55:41 85° ENE 21:59:13 24° SSE
BREEZE-M DEB (TANK) 4.0 21:55:52 10° W 21:57:15 15° SW 21:57:38 15° SW
Cosmos 1190 Rocket 4.1 21:52:59 10° SSW 21:58:18 84° WNW 22:03:40 10° NNE
Cosmos 1825 Rocket 3.6 21:54:32 11° S 21:58:46 82° W 22:03:13 10° N
Cosmos 1766 3.9 21:58:06 10° N 22:01:54 40° ENE 22:03:02 32° ESE
PSLV R/B 3.7 22:02:56 10° WNW 22:06:27 62° N 22:08:17 26° ENE
CZ-4 R/B 4.0 22:01:32 10° NNE 22:06:30 59° E 22:09:21 25° S
H-2A R/B 3.2 22:04:51 21° E 22:06:44 27° ENE 22:10:56 10° N
ATLAS 3B R/B 3.1 22:00:10 10° SW 22:07:53 79° WNW 22:15:28 10° NNE
YAOGAN 6 2.6 22:06:29 37° SSE 22:07:54 82° ENE 22:11:40 10° N
NOAA 11 4.4 22:05:44 28° SE 22:08:28 54° ENE 22:13:44 10° N
Cosmos 1140 Rocket 4.2 22:07:18 29° SE 22:08:36 33° E 22:13:16 10° NE
SPOT 5 3.5 22:11:39 18° SSW 22:14:37 44° W 22:18:46 10° NNW
Cosmos 676 Rocket 3.9 22:10:41 12° SSW 22:15:36 83° ESE 22:20:57 10° NNE
SPOT 1/Viking Rocket 3.5 22:12:55 29° SSE 22:15:40 87° ENE 22:20:51 10° NNW
Terra 3.0 22:14:42 25° E 22:16:05 29° ENE 22:20:09 10° N
H-2A R/B 4.3 22:14:42 10° SW 22:17:51 20° W 22:21:04 10° NW
Lacrosse 4 Rocket 2.5 22:15:39 10° SW 22:19:31 44° WNW 22:23:27 10° NNE
Cosmos 2084 4.2 22:19:28 10° NNW 22:23:24 41° NE 22:24:37 33° E
USA 234 3.5 22:21:50 25° ESE 22:25:52 64° NE 22:32:21 10° NW
Cosmos 2263 4.3 22:23:19 10° NNW 22:28:55 72° WSW 22:31:28 33° S
Cosmos 1805 4.1 22:26:17 10° NNE 22:29:55 34° ENE 22:29:59 34° E
COSMOS 2406 3.2 22:33:42 35° S 22:35:56 59° ESE 22:41:34 10° NNE
Nadezhda 4 Rocket 4.3 22:34:52 36° SE 22:37:01 51° E 22:43:07 10° NNE
CZ-4C R/B 3.3 22:38:41 60° SSE 22:39:25 88° ENE 22:43:27 10° NNW
Atlas Centaur 2 3.4 22:36:54 10° WSW 22:43:52 41° S 22:46:02 35° SSE
DMSP B5D2-2 4.2 22:39:19 10° NNE 22:44:28 53° E 22:45:23 47° SE
SL-27 R/B 2.6 22:45:17 63° WNW 22:45:20 63° WNW 22:48:40 10° N
Cosmos 1943 Rocket 2.1 22:43:15 10° NNW 22:48:50 89° SW 22:50:27 49° SSE
Cosmos-2242 3.0 22:46:30 10° N 22:50:55 83° W 22:51:34 64° S
COSMOS 2487 4.3 22:54:06 22° NE 22:54:06 22° NE 22:55:42 10° NE
USA 238 DEB 3.7 22:45:50 10° SSW 22:52:57 89° WNW 23:00:04 10° NNE
USA 238 3.7 22:45:57 10° SSW 22:53:03 90° WNW 23:00:10 10° NNE
Cosmos 1953 2.2 22:52:16 10° N 22:56:16 86° W 22:56:18 86° WSW
Cosmos 1656 Rocket 4.1 22:52:05 10° NNW 22:57:37 52° ENE 22:58:57 43° ESE
SL-08 RB Rocket 4.3 22:57:31 40° SW 22:58:37 49° W 23:03:01 10° NNW
Kosmos-1675 4.4 22:57:02 25° WSW 22:58:43 55° NW 23:07:33 10° NNE
Spot 2 4.3 22:58:39 10° NNE 23:03:35 85° ESE 23:04:32 60° S
Cosmos 1607 3.8 23:01:39 27° SSW 23:05:15 87° ESE 23:11:31 10° NNE
Cosmos 2208 Rocket 3.8 23:10:12 10° NNW 23:15:24 85° WSW 23:15:59 71° S
CZ-4C R/B 2.6 23:17:09 44° E 23:17:09 44° E 23:21:55 10° NE
Cosmos 2026 Rocket 4.5 23:16:02 39° E 23:16:29 40° E 23:22:04 10° NNE
SeaSat 1 4.2 23:15:27 19° SW 23:16:46 21° WSW 23:20:26 10° WNW
CARTOSAT-1 4.0 23:22:12 51° WSW 23:22:15 51° W 23:26:29 10° NNW
Okean 3 Rocket 3.9 23:24:56 57° NE 23:24:56 57° NE 23:28:39 10° NNE
Cosmos 1733 4.4 23:22:53 10° N 23:25:34 36° NNE 23:25:34 36° NNE
NOSS 3-2 (C) 3.6 23:27:22 52° ESE 23:27:22 52° ESE 23:33:37 10° NE
Cosmos 1741 Rocket 4.4 23:25:43 41° SW 23:27:21 61° WNW 23:32:38 10° NNE
H-2A R/B 3.1 23:45:29 32° WSW 23:46:00 33° W 23:50:33 10° NNW
Cosmos 2344 4.2 23:46:19 37° ESE 23:46:23 37° ESE 23:53:48 10° NE
ALOS 2 4.1 23:48:44 27° ENE 23:48:44 27° ENE 23:51:57 10° NNE
Meteor 2-5 Rocket 3.8 23:48:37 64° SW 23:49:26 75° W 23:55:14 10° N
Cosmos 1340 4.1 23:52:34 36° NW 23:52:34 36° NW 23:55:16 10° N
Terra 3.2 23:53:35 27° W 23:53:45 27° W 23:57:48 10° NW
